Dati Storici

Data ora Umidita' aria (%) Temperatura aria (°C) Rad globale (W/m²) Gonioanemometro (°) Tacoanemometro (m/s) Pioggia (mm)
24-06-2020 15:30 44.6 % 26.854 98.771 1.717 0 0
24-06-2020 15:20 43.5 % 27.388 47.302 0.391 0 0
24-06-2020 15:10 41.6 % 26.99 124.962 1.384 0 0
24-06-2020 15:00 42.6 % 26.977 114.009 2.701 0 0
24-06-2020 14:50 42.4 % 27.625 108.218 1.731 0 0
24-06-2020 14:40 40.2 % 27.79 121.686 3.001 0 0
24-06-2020 14:30 39.6 % 27.568 80.212 3.441 0 0
24-06-2020 14:20 38.6 % 27.483 86.022 2.252 0 0
24-06-2020 14:10 41.3 % 27.989 77.374 0.932 0 0
24-06-2020 14:00 40.6 % 27.612 113.951 0.408 0 0
24-06-2020 13:50 40.2 % 28.134 143.481 1.778 0 0
24-06-2020 13:40 42.9 % 27.292 83.981 1.791 0 0
24-06-2020 13:30 45.1 % 27.364 61.88 0.44 0 0
24-06-2020 13:20 51.9 % 26.217 70.055 2.454 0 0
24-06-2020 13:10 52.1 % 26.797 14.654 1.537 0 0
24-06-2020 13:00 50.8 % 26.322 86.262 2.029 0 0
24-06-2020 12:50 52.6 % 26.25 81.279 3.035 0 0
24-06-2020 12:40 53.4 % 26.74 82.343 3.001 0 0
24-06-2020 12:30 54.1 % 25.845 71.827 2.622 0 0
24-06-2020 12:20 54.3 % 26.15 146.284 0.5 0 0

I dati sono presentati in modo automatico a scopo informativo. In seguito a verifica i dati possono subire modifiche o essere invalidati e non riportati negli archivi definitivi.